Temperature
15 15 15 15 16 16 16 16 16 16 16 16 16 16 16 16 16 16 15 15 16 16 16 16 15 15 15 15 15 15 15 15 14 14 14 14 14 14 14 14 14 14 14
15 15 15 15 15 15 15 16 16 15 16 16 16 16 16 16 16 16 15 15 15 15 15 15 15 15 15 15 15 15 15 15 15 14 14 14 14 14 14 14 14 14 14
15 15 15 15 15 15 15 15 15 15 15 15 15 15 15 15 15 15 15 15 15 15 15 15 15 15 15 15 15 15 14 14 14 14 14 14 14 14 14 14 14 14 14
14 15 15 15 15 15 15 15 15 15 15 15 15 15 15 15 15 15 15 15 15 15 15 15 15 15 15 15 15 14 14 14 14 14 14 14 14 14 14 14 14 13 13
14 14 14 14 14 15 15 15 15 15 15 15 15 15 15 15 15 15 15 15 15 15 14 15 15 15 14 14 14 14 14 14 14 14 14 13 13 13 13 13 13 13 13
14 14 14 14 14 14 14 14 15 15 15 15 15 15 15 15 15 15 15 15 15 14 14 14 14 14 14 14 14 14 14 14 13 13 13 13 13 13 13 13 13 13 13
14 14 14 14 14 14 14 14 14 14 14 14 14 14 14 14 14 14 14 14 15 14 14 14 14 14 14 14 14 14 14 13 13 13 13 13 13 13 13 13 13 13 13
13 13 13 13 13 14 14 14 14 14 14 14 14 14 14 14 14 14 14 14 14 14 14 14 14 14 14 13 13 13 13 13 13 13 13 13 13 13 13 13 13 13 12
13 13 13 13 13 13 13 13 13 13 13 13 14 14 14 14 14 14 14 14 14 14 14 13 13 13 13 13 13 13 13 13 13 13 13 13 13 13 13 12 12 12 12
12 12 12 12 13 13 13 13 13 13 13 13 13 13 13 13 13 13 13 13 13 14 13 13 13 13 13 13 13 13 13 13 13 13 13 12 12 12 12 12 12 12 12
12 11 12 12 12 12 12 12 12 12 12 13 13 13 13 13 13 13 13 13 13 13 13 13 13 13 13 13 13 13 12 13 13 13 13 12 12 12 12 12 12 12 12
11 11 11 11 11 11 12 12 12 12 12 12 12 12 12 12 12 12 12 12 13 13 12 12 12 12 12 12 12 12 12 12 12 12 12 12 12 12 12 12 12 12 12
11 11 11 11 11 11 11 11 11 11 11 12 12 12 12 12 12 12 12 12 12 12 12 12 12 12 12 12 12 12 12 12 12 12 12 12 12 12 11 11 11 12 11
10 10 10 10 10 10 11 11 11 11 11 11 11 11 11 11 11 12 12 12 12 12 12 12 12 12 12 12 12 12 12 12 12 12 11 11 11 11 11 11 11 11 11
10 10 10 10 10 10 10 10 10 11 11 11 11 11 11 11 11 11 11 11 11 11 11 11 11 11 11 11 11 11 11 11 11 11 11 11 11 11 11 11 11 11 11
10 10 10 10 10 10 10 10 10 10 10 10 10 10 10 10 10 10 10 11 11 11 11 11 11 11 11 11 11 11 11 11 11 11 11 11 11 11 11 11 11 11 11
9 9 9 9 9 9 9 9 9 9 9 9 10 10 10 10 10 10 10 10 10 10 10 10 11 10 10 10 11 11 11 11 10 11 11 11 11 11 11 11 11 11 10
9 9 9 9 9 9 9 9 9 9 9 9 9 9 9 9 9 9 9 10 10 10 10 10 10 10 10 10 10 10 10 10 10 10 10 10 10 10 10 10 10 10 10
8 8 8 8 8 8 8 8 8 8 8 8 8 8 9 9 9 9 9 9 9 9 9 9 9 9 9 9 9 10 10 10 10 10 10 10 10 10 10 10 10 10 10
8 8 8 8 8 8 8 8 8 8 8 8 8 8 8 8 8 8 8 9 9 9 9 9 9 9 9 9 9 9 9 9 9 9 9 9 9 9 10 10 10 10 10
7 7 7 7 7 7 7 7 7 7 7 7 7 7 7 7 8 8 8 8 8 8 8 8 8 8 8 8 8 8 8 9 9 9 9 9 9 9 9 9 9 9 9
7 7 7 7 7 7 7 6 7 7 7 7 7 7 7 7 7 7 7 7 7 8 8 8 8 8 8 7 7 7 7 7 8 8 9 8 9 9 9 9 9 9 9
6 6 6 6 6 6 6 6 6 6 6 6 6 7 7 7 7 7 7 7 7 7 7 7 7 7 7 7 7 7 7 7 7 7 8 8 8 8 8 8 8 8 8
6 6 6 6 6 6 6 5 5 5 5 5 6 6 6 6 6 6 6 6 6 7 7 7 7 7 7 6 6 7 7 7 6 6 7 7 7 8 8 8 8 8 8
5 5 5 5 5 5 5 5 5 5 5 5 5 5 6 6 6 6 6 6 6 6 6 6 6 6 6 6 6 6 6 6 6 6 6 6 7 7 7 7 7 7 7
5 5 5 5 5 5 5 5 5 4 4 4 4 5 5 5 5 5 5 5 5 5 6 6 6 6 6 6 6 6 6 6 6 6 6 6 6 7 7 7 7 7 7
Wind_Speed
1 1 4 5 5 6 7 7 7 8 8 8 8 8 8 8 9 9 9 9 10 10 9 9 10 10 10 10 10 10 10 10 10 9 9 9 9 10 10 9 9 8 9
4 4 5 5 6 6 6 6 7 7 7 7 7 7 7 7 8 8 8 8 9 9 8 9 9 9 9 10 10 10 10 9 9 8 8 8 9 9 9 8 8 7 8
5 5 6 5 6 6 6 6 6 6 6 6 6 6 6 6 6 7 7 7 7 8 8 8 9 9 9 9 9 9 9 9 9 8 7 7 7 8 8 8 7 7 7
7 6 5 5 6 6 6 6 6 5 5 5 5 5 5 5 6 6 6 6 6 7 7 8 8 8 8 9 9 8 8 8 8 7 7 6 6 7 7 7 7 6 6
6 6 5 6 5 5 5 5 5 4 4 4 4 5 5 5 5 5 5 6 6 6 6 7 7 7 8 8 8 7 7 7 7 6 6 5 5 6 6 6 5 5 5
5 5 6 6 5 5 4 4 4 3 3 3 3 4 4 4 4 4 5 5 6 6 6 6 6 6 7 7 7 7 7 7 6 6 5 5 4 5 6 5 5 5 5
4 4 5 6 6 5 5 4 3 2 2 2 3 3 3 4 4 4 4 5 5 5 5 5 5 5 6 6 6 6 7 6 6 5 4 4 4 4 5 5 4 4 4
5 4 5 5 4 4 4 3 3 2 1 1 2 3 3 3 3 3 3 4 4 5 4 4 4 4 5 5 5 5 5 5 4 4 4 3 4 4 4 4 4 3 3
5 4 4 4 4 3 2 2 2 2 1 0 1 2 3 3 3 3 2 3 3 4 4 4 4 4 3 4 5 5 4 4 5 4 3 3 3 4 3 4 3 3 3
4 3 3 4 3 3 1 1 1 1 1 1 1 2 2 3 3 3 2 2 3 4 4 4 4 3 3 3 3 4 4 4 4 3 3 3 4 4 4 4 4 3 3
3 2 2 3 3 2 2 1 1 0 0 0 1 1 2 2 3 3 3 2 3 3 3 3 3 3 3 3 2 2 3 3 3 2 3 4 4 4 4 4 5 4 4
1 1 1 1 1 2 1 2 1 0 0 0 1 2 2 2 3 3 3 3 3 3 3 3 3 3 2 2 2 2 2 3 3 2 4 5 5 5 5 5 6 6 5
1 0 1 1 1 1 0 1 1 0 0 1 1 2 2 2 2 2 3 3 3 3 2 2 2 2 2 2 2 3 3 3 3 3 5 6 6 6 6 6 6 6 6
1 1 1 1 0 0 0 0 1 0 0 1 1 2 2 1 2 2 2 3 3 2 1 2 2 2 2 3 3 3 3 4 4 4 5 7 7 7 7 6 6 7 7
1 2 1 1 1 1 0 1 1 1 2 2 2 3 3 2 2 2 3 3 3 3 2 2 2 2 2 3 3 3 3 5 6 6 5 7 8 8 8 8 7 8 8
2 2 2 2 1 1 1 2 2 2 2 2 2 3 3 3 2 3 3 3 3 3 4 3 3 2 2 2 3 3 4 5 6 6 6 7 9 9 9 9 9 8 9
3 2 2 2 1 2 2 2 2 2 2 2 2 3 3 3 3 3 3 3 3 4 3 3 2 2 2 1 2 3 3 4 5 7 7 7 8 9 9 10 10 9 9
2 2 2 2 2 2 3 3 2 2 2 2 3 3 3 3 3 3 3 3 4 4 3 3 2 2 2 2 2 3 3 3 4 6 7 7 7 8 9 10 10 10 10
2 2 2 2 3 3 3 2 2 2 3 2 2 3 3 3 3 3 3 3 4 3 3 3 2 2 2 2 3 3 3 3 4 5 5 7 8 8 8 9 10 11 11
2 2 2 2 3 3 2 2 2 2 2 2 2 3 3 3 3 2 3 3 3 2 3 2 3 2 2 2 3 3 3 4 4 4 5 5 7 8 8 8 8 9 10
1 1 2 2 3 2 1 2 2 3 3 3 3 3 4 4 3 3 3 3 3 3 3 3 2 2 2 1 1 2 4 4 4 4 4 4 5 7 8 7 7 7 8
2 2 3 3 3 3 3 3 3 3 3 3 3 4 4 4 4 4 4 3 3 3 3 3 2 2 2 2 2 1 2 3 3 4 4 5 5 4 5 6 7 7 7
3 3 3 4 4 3 3 2 2 1 2 2 2 3 4 4 4 5 5 4 4 4 4 4 4 3 3 3 3 3 2 4 3 3 4 5 5 4 4 5 6 7 7
4 4 3 3 3 3 2 3 3 3 3 4 3 3 3 4 4 4 5 4 4 4 4 5 4 4 4 4 3 3 3 3 2 2 3 4 5 5 6 5 5 6 7
4 3 3 3 3 3 3 3 3 3 3 3 2 2 3 2 3 4 4 4 4 4 4 4 4 4 4 5 4 3 3 3 4 3 5 4 4 4 5 5 5 5 6
4 4 3 3 4 3 3 3 3 4 4 3 2 3 2 2 2 3 3 3 3 3 4 4 4 5 4 5 4 4 4 4 3 3 4 5 5 4 4 4 5 5 5
Wind_Direction
197 167 129 110 99 92 87 84 82 85 85 85 83 89 96 97 100 102 107 113 114 114 119 120 120 117 115 112 109 108 105 102 103 101 101 102 104 102 100 98 92 88 92
156 141 127 115 106 96 90 87 83 88 90 89 89 89 94 101 103 107 112 118 120 120 121 123 124 122 118 114 111 110 108 105 103 98 95 101 105 106 102 100 98 97 94
124 126 127 117 106 99 93 91 87 84 92 94 94 95 94 102 107 108 113 118 120 124 126 128 127 125 123 120 116 112 110 107 104 96 94 94 103 110 108 102 101 102 101
118 117 125 116 108 102 96 92 91 87 89 98 98 97 102 104 111 110 112 117 122 124 130 131 130 129 128 127 121 117 112 109 103 96 94 93 102 111 112 107 103 102 105
106 108 116 114 111 106 102 97 93 91 88 95 103 104 106 106 109 115 120 121 118 120 122 130 135 134 132 131 127 122 116 112 97 94 99 100 103 113 115 109 111 108 105
100 100 109 110 109 106 103 100 99 98 100 99 114 115 110 104 109 112 124 132 131 124 122 126 134 139 136 136 134 128 122 113 95 97 100 102 107 115 116 112 118 120 116
103 97 110 111 113 101 89 85 92 101 112 119 120 131 126 115 114 118 124 135 140 137 138 133 136 143 147 146 142 134 127 116 99 101 105 111 117 123 129 128 122 126 131
117 100 108 107 104 111 102 93 76 68 88 140 136 146 142 139 132 126 131 141 145 153 155 153 143 145 158 160 153 144 133 122 110 113 117 125 130 138 140 140 142 142 137
105 99 84 93 94 89 109 115 94 73 49 53 175 167 151 152 153 149 140 156 157 160 167 165 157 158 161 173 162 152 142 130 121 127 141 140 152 162 162 157 156 162 156
84 86 80 65 63 62 68 132 101 92 54 0 228 200 180 169 171 168 159 167 173 171 173 178 177 170 171 170 170 165 149 137 133 147 163 164 173 180 183 179 176 174 172
63 49 82 76 58 46 44 51 70 115 114 13 213 205 202 179 172 162 160 166 177 178 182 187 191 184 172 170 174 160 149 145 147 160 177 184 192 197 199 197 194 195 194
8 11 43 82 80 51 22 21 55 62 271 279 215 197 201 178 178 172 172 174 172 181 188 196 210 192 173 166 182 175 172 181 169 181 194 200 207 213 214 215 211 209 205
266 300 354 33 112 94 46 16 24 39 249 241 222 203 191 169 181 178 162 167 173 181 183 198 220 195 179 184 186 190 198 195 189 202 207 211 219 222 222 226 223 219 216
272 291 308 322 219 211 74 305 307 230 251 258 267 208 174 183 208 207 197 189 185 188 199 208 213 200 201 203 200 200 211 204 204 207 214 218 224 226 227 234 236 229 224
262 274 264 258 245 268 308 289 295 260 237 248 249 231 198 200 214 222 213 204 202 206 205 201 200 194 198 208 208 209 218 220 213 212 218 221 227 231 232 239 247 245 234
263 260 264 251 237 240 255 260 272 280 257 238 240 245 219 203 212 218 218 215 214 214 214 205 200 203 217 215 223 217 219 224 222 219 221 224 229 233 237 240 247 253 244
254 262 257 258 258 250 252 251 267 277 272 258 258 252 240 214 214 222 207 216 217 212 215 214 204 195 228 233 243 242 229 228 228 222 225 226 227 231 237 240 244 250 250
243 265 265 275 279 264 256 252 255 280 267 263 269 257 256 229 219 224 208 215 221 208 202 212 209 211 231 238 245 255 248 239 238 229 223 225 225 229 234 240 243 246 250
240 243 264 269 267 270 273 269 265 273 257 254 262 262 266 243 218 221 216 220 211 205 205 217 221 205 225 240 246 257 255 253 247 239 228 223 223 226 230 237 240 243 247
250 247 250 267 266 275 283 296 288 277 266 260 254 266 262 249 230 219 221 224 215 205 216 210 224 227 220 230 259 277 275 265 257 240 234 231 225 224 228 231 232 238 243
292 287 266 270 266 268 266 261 265 262 257 253 253 257 257 246 231 213 217 215 216 212 212 206 218 222 232 192 237 297 296 272 261 255 236 230 232 228 226 227 228 232 237
264 270 275 278 268 251 246 240 241 245 245 241 248 261 254 239 225 216 202 215 223 220 213 207 204 230 241 210 201 234 291 299 266 261 244 232 235 237 235 235 230 229 230
278 270 273 277 274 261 263 268 273 282 284 262 255 248 249 237 230 221 215 211 218 214 214 217 209 216 234 256 220 206 217 246 295 270 246 242 236 231 237 242 235 234 231
285 279 274 276 280 276 254 247 233 241 255 259 254 252 254 236 231 228 219 212 218 224 220 224 230 220 217 236 251 240 242 237 236 279 277 256 244 237 232 236 237 237 235
306 290 277 281 279 273 252 241 239 243 254 269 271 268 252 237 231 223 220 211 219 228 229 228 231 226 227 231 236 246 256 262 250 243 270 281 274 252 242 235 228 232 241
319 317 294 279 272 269 262 255 249 253 256 267 265 264 256 239 230 219 220 216 226 230 234 236 237 226 234 238 241 244 241 238 241 239 249 263 271 270 257 246 233 229 241
Height
1515 1515 1516 1516 1517 1517 1517 1518 1518 1518 1519 1519 1520 1520 1521 1521 1522 1522 1523 1523 1523 1523 1524 1524 1524 1524 1524 1525 1525 1525 1526 1526 1526 1527 1527 1527 1527 1527 1527 1527 1527 1527 1527
1514 1514 1515 1516 1516 1517 1517 1517 1518 1518 1518 1519 1519 1520 1520 1521 1521 1521 1522 1522 1523 1523 1523 1523 1523 1524 1524 1525 1525 1525 1525 1526 1526 1526 1527 1527 1527 1527 1527 1527 1527 1527 1527
1513 1514 1514 1515 1516 1516 1516 1517 1517 1517 1518 1518 1519 1519 1520 1520 1521 1521 1521 1522 1522 1522 1522 1523 1523 1523 1524 1524 1525 1525 1525 1525 1526 1526 1526 1527 1527 1527 1527 1527 1527 1527 1527
1512 1513 1513 1514 1515 1515 1516 1516 1516 1517 1517 1518 1518 1519 1519 1519 1520 1520 1520 1521 1521 1521 1522 1522 1522 1523 1523 1524 1524 1524 1525 1525 1525 1526 1526 1526 1527 1527 1527 1527 1527 1527 1527
1512 1512 1513 1513 1514 1515 1515 1515 1516 1516 1516 1517 1517 1517 1518 1518 1519 1519 1519 1519 1520 1520 1521 1521 1522 1522 1522 1523 1523 1523 1524 1524 1524 1525 1525 1526 1526 1526 1526 1526 1526 1526 1526
1510 1511 1512 1513 1513 1513 1514 1514 1514 1515 1515 1515 1516 1516 1517 1517 1517 1518 1518 1518 1519 1519 1520 1520 1520 1521 1521 1522 1522 1522 1523 1523 1524 1524 1524 1525 1525 1526 1526 1525 1525 1525 1525
1509 1510 1511 1511 1512 1512 1512 1512 1513 1513 1514 1514 1514 1515 1515 1515 1516 1516 1517 1517 1517 1518 1518 1519 1519 1520 1520 1520 1521 1521 1521 1522 1522 1523 1523 1524 1524 1525 1525 1524 1524 1524 1525
1509 1509 1510 1510 1510 1511 1511 1511 1511 1512 1512 1512 1513 1513 1513 1514 1514 1515 1515 1515 1516 1516 1517 1517 1517 1518 1519 1519 1519 1519 1520 1520 1521 1521 1522 1522 1523 1523 1523 1523 1523 1523 1524
1508 1508 1508 1509 1509 1509 1509 1509 1509 1510 1510 1510 1511 1511 1511 1512 1512 1513 1513 1514 1514 1515 1515 1516 1516 1516 1517 1517 1518 1518 1518 1519 1519 1519 1520 1520 1521 1522 1522 1522 1522 1522 1522
1507 1507 1507 1507 1507 1507 1507 1508 1508 1508 1508 1508 1509 1509 1509 1510 1510 1511 1511 1512 1512 1513 1513 1514 1514 1514 1515 1515 1515 1516 1516 1517 1517 1518 1518 1519 1519 1520 1520 1520 1520 1520 1521
1505 1505 1505 1505 1505 1505 1505 1505 1505 1505 1506 1506 1506 1507 1507 1507 1508 1509 1509 1510 1510 1511 1511 1512 1512 1512 1513 1513 1513 1514 1514 1515 1515 1515 1516 1517 1517 1517 1518 1518 1518 1519 1519
1502 1503 1503 1503 1503 1503 1503 1502 1503 1503 1503 1503 1503 1504 1504 1505 1505 1506 1507 1507 1508 1509 1509 1509 1510 1510 1511 1511 1511 1511 1512 1512 1512 1513 1513 1514 1515 1515 1515 1516 1516 1516 1516
1500 1500 1501 1501 1501 1500 1500 1500 1500 1500 1500 1501 1501 1501 1502 1502 1503 1503 1504 1505 1505 1506 1507 1507 1508 1508 1508 1508 1509 1509 1509 1509 1509 1510 1511 1511 1512 1512 1513 1513 1514 1514 1514
1499 1498 1498 1498 1498 1498 1498 1497 1497 1497 1497 1498 1498 1499 1499 1499 1499 1500 1500 1501 1502 1503 1504 1504 1505 1505 1505 1506 1506 1506 1506 1506 1507 1507 1508 1508 1509 1510 1510 1510 1510 1511 1511
1496 1496 1496 1496 1495 1495 1495 1495 1494 1494 1494 1494 1495 1495 1496 1496 1496 1496 1497 1498 1499 1500 1500 1501 1502 1502 1502 1503 1503 1503 1503 1503 1503 1504 1504 1505 1506 1506 1507 1507 1507 1508 1508
1493 1494 1493 1493 1493 1493 1492 1491 1491 1491 1491 1491 1491 1492 1492 1493 1493 1493 1494 1495 1495 1496 1497 1498 1498 1499 1499 1499 1499 1499 1500 1500 1500 1501 1501 1501 1502 1503 1503 1503 1504 1504 1504
1490 1490 1490 1490 1490 1489 1489 1488 1488 1488 1488 1487 1488 1488 1489 1489 1490 1490 1490 1491 1492 1493 1494 1494 1494 1495 1496 1496 1496 1496 1496 1496 1496 1497 1497 1498 1498 1499 1499 1499 1500 1500 1500
1487 1487 1487 1487 1487 1486 1486 1485 1484 1484 1484 1484 1484 1485 1485 1485 1486 1486 1487 1488 1489 1489 1490 1490 1490 1491 1491 1492 1492 1492 1492 1492 1493 1493 1493 1493 1494 1494 1494 1495 1495 1496 1496
1484 1484 1484 1483 1483 1482 1482 1481 1481 1481 1481 1480 1481 1481 1481 1482 1482 1483 1483 1484 1484 1485 1486 1486 1486 1487 1487 1488 1488 1488 1488 1488 1488 1489 1488 1488 1489 1489 1490 1490 1491 1491 1492
1481 1481 1480 1480 1480 1479 1479 1478 1477 1477 1477 1476 1476 1477 1477 1478 1478 1479 1479 1479 1480 1481 1482 1482 1482 1483 1484 1484 1484 1484 1484 1484 1484 1484 1484 1484 1484 1484 1485 1485 1486 1486 1487
1478 1477 1477 1476 1476 1475 1474 1474 1473 1472 1472 1472 1472 1472 1473 1473 1474 1474 1475 1475 1475 1476 1477 1478 1478 1479 1479 1480 1480 1480 1479 1480 1479 1479 1479 1479 1480 1480 1480 1480 1481 1482 1482
1474 1474 1473 1472 1472 1472 1471 1470 1470 1469 1468 1468 1468 1468 1468 1469 1469 1470 1470 1470 1471 1471 1472 1473 1474 1474 1474 1476 1476 1476 1475 1475 1473 1474 1474 1474 1474 1475 1475 1476 1476 1476 1477
1471 1470 1470 1469 1469 1468 1467 1467 1466 1466 1465 1464 1463 1463 1464 1465 1465 1466 1466 1466 1467 1467 1467 1468 1469 1469 1469 1471 1473 1474 1473 1471 1469 1468 1469 1469 1469 1469 1470 1470 1470 1471 1472
1468 1467 1467 1466 1465 1464 1464 1463 1462 1461 1459 1459 1458 1458 1460 1461 1461 1461 1462 1462 1462 1463 1463 1464 1465 1465 1466 1466 1468 1469 1470 1468 1467 1464 1464 1464 1465 1465 1465 1465 1466 1466 1467
1465 1464 1463 1462 1461 1461 1460 1459 1458 1457 1456 1455 1455 1455 1455 1456 1456 1457 1457 1457 1458 1458 1459 1459 1460 1461 1461 1461 1462 1463 1464 1464 1463 1462 1459 1459 1460 1460 1460 1460 1461 1462 1462
1462 1461 1460 1459 1458 1458 1456 1455 1454 1453 1452 1451 1451 1450 1450 1450 1451 1452 1452 1453 1453 1453 1454 1454 1455 1456 1456 1457 1457 1458 1459 1459 1458 1458 1456 1455 1455 1455 1456 1456 1456 1456 1457